• In Österreich
  • Länderverzeichnis
  • Für 7 Tage
  • Wassertemperatur
  • Satellitenkarten
  • Wetterkarte
  • News
  • Widgets
  • user-avatar
    Anmelden

    Stündliche Wetter Grado

    Heute, 28 Mai, Sonntag

    Zeit Temperatur Niederschläge Wind Luftdruck Luftfeuchtigkeit
    00:00 +19°C° 0 mm 1 m/S 767 mmHg 83%
    01:00 +18°C° 0 mm 1 m/S 767 mmHg 84%
    02:00 +17°C° 0 mm 2 m/S 767 mmHg 84%
    03:00 +17°C° 0 mm 2 m/S 767 mmHg 84%
    04:00 +17°C° 0 mm 2 m/S 767 mmHg 84%
    05:00 +18°C° 0 mm 2 m/S 767 mmHg 78%
    06:00 +20°C° 0 mm 2 m/S 767 mmHg 73%
    07:00 +23°C° 0 mm 1 m/S 767 mmHg 67%
    08:00 +25°C° 0 mm 1 m/S 767 mmHg 61%
    09:00 +26°C° 0 mm 1 m/S 767 mmHg 55%
    10:00 +28°C° 0 mm 1 m/S 767 mmHg 50%
    11:00 +29°C° 0 mm 2 m/S 766 mmHg 48%
    12:00 +30°C° 0 mm 2 m/S 766 mmHg 45%
    13:00 +30°C° 0 mm 3 m/S 766 mmHg 43%
    14:00 +30°C° 0 mm 3 m/S 766 mmHg 45%
    15:00 +30°C° 0 mm 3 m/S 766 mmHg 46%
    16:00 +29°C° 0 mm 3 m/S 765 mmHg 48%
    17:00 +27°C° 0 mm 3 m/S 765 mmHg 57%
    18:00 +26°C° 0 mm 2 m/S 765 mmHg 67%
    19:00 +24°C° 0 mm 2 m/S 765 mmHg 76%
    20:00 +22°C° 0 mm 1 m/S 766 mmHg 80%
    21:00 +21°C° 0 mm 1 m/S 766 mmHg 83%
    22:00 +19°C° 0 mm 1 m/S 766 mmHg 87%
    23:00 +19°C° 0 mm 1 m/S 766 mmHg 86%

    Morgen, 29 Mai, Montag

    Zeit Temperatur Niederschläge Wind Luftdruck Luftfeuchtigkeit
    00:00 +18°C° 0 mm 1 m/S 766 mmHg 86%
    01:00 +18°C° 0 mm 1 m/S 766 mmHg 85%
    02:00 +18°C° 0 mm 1 m/S 765 mmHg 85%
    03:00 +16°C° 0 mm 1 m/S 765 mmHg 84%
    04:00 +16°C° 0 mm 1 m/S 765 mmHg 84%
    05:00 +19°C° 0 mm 1 m/S 765 mmHg 77%
    06:00 +21°C° 0 mm 1 m/S 765 mmHg 71%
    07:00 +23°C° 0 mm 1 m/S 765 mmHg 64%
    08:00 +25°C° 0 mm 1 m/S 764 mmHg 59%
    09:00 +26°C° 0 mm 1 m/S 764 mmHg 53%
    10:00 +28°C° 0 mm 1 m/S 764 mmHg 48%
    11:00 +29°C° 0 mm 2 m/S 764 mmHg 47%
    12:00 +29°C° 0 mm 2 m/S 763 mmHg 46%
    13:00 +30°C° 0 mm 3 m/S 763 mmHg 45%
    14:00 +30°C° 0 mm 3 m/S 763 mmHg 47%
    15:00 +29°C° 0 mm 3 m/S 762 mmHg 50%
    16:00 +29°C° 0 mm 3 m/S 762 mmHg 53%
    17:00 +27°C° 0 mm 3 m/S 762 mmHg 61%
    18:00 +25°C° 0 mm 2 m/S 762 mmHg 70%
    19:00 +24°C° 0 mm 2 m/S 762 mmHg 79%
    20:00 +21°C° 0 mm 2 m/S 762 mmHg 83%
    21:00 +20°C° 0 mm 1 m/S 763 mmHg 87%
    22:00 +18°C° 0 mm 1 m/S 763 mmHg 91%
    23:00 +16°C° 0 mm 1 m/S 763 mmHg 91%

    übermorgen, 30 Mai, Dienstag

    Zeit Temperatur Niederschläge Wind Luftdruck Luftfeuchtigkeit
    00:00 +16°C° 0 mm 1 m/S 762 mmHg 91%
    01:00 +16°C° 0 mm 1 m/S 762 mmHg 91%
    02:00 +16°C° 0 mm 1 m/S 762 mmHg 92%
    03:00 +15°C° 0 mm 1 m/S 762 mmHg 92%
    04:00 +15°C° 0 mm 1 m/S 762 mmHg 93%
    05:00 +19°C° 0 mm 1 m/S 762 mmHg 85%
    06:00 +21°C° 0 mm 1 m/S 762 mmHg 77%
    07:00 +24°C° 0 mm 1 m/S 762 mmHg 70%
    08:00 +25°C° 0 mm 1 m/S 762 mmHg 65%
    09:00 +27°C° 0 mm 2 m/S 762 mmHg 60%
    10:00 +28°C° 0 mm 2 m/S 762 mmHg 56%
    11:00 +29°C° 0 mm 2 m/S 762 mmHg 54%
    12:00 +29°C° 0 mm 3 m/S 762 mmHg 52%
    13:00 +30°C° 0 mm 3 m/S 762 mmHg 51%
    14:00 +30°C° 0 mm 3 m/S 762 mmHg 51%
    15:00 +29°C° 0 mm 3 m/S 761 mmHg 52%
    16:00 +29°C° 0 mm 3 m/S 761 mmHg 52%
    17:00 +28°C° 0 mm 2 m/S 761 mmHg 61%
    18:00 +26°C° 0 mm 2 m/S 761 mmHg 69%
    19:00 +24°C° 0 mm 2 m/S 761 mmHg 77%
    20:00 +23°C° 0 mm 2 m/S 762 mmHg 81%
    21:00 +20°C° 0 mm 2 m/S 762 mmHg 85%
    22:00 +18°C° 0 mm 2 m/S 762 mmHg 88%
    23:00 +18°C° 0 mm 2 m/S 763 mmHg 88%

    31 Mai, Mittwoch

    Zeit Temperatur Niederschläge Wind Luftdruck Luftfeuchtigkeit
    00:00 +18°C° 0 mm 2 m/S 763 mmHg 88%
    01:00 +18°C° 0 mm 2 m/S 763 mmHg 88%
    02:00 +17°C° 0 mm 2 m/S 763 mmHg 88%
    03:00 +17°C° 0 mm 2 m/S 763 mmHg 89%
    04:00 +17°C° 0 mm 2 m/S 762 mmHg 89%
    05:00 +19°C° 0 mm 2 m/S 763 mmHg 82%
    06:00 +21°C° 0 mm 2 m/S 763 mmHg 75%
    07:00 +25°C° 0 mm 1 m/S 763 mmHg 68%
    08:00 +26°C° 0 mm 2 m/S 763 mmHg 64%
    09:00 +27°C° 0 mm 2 m/S 763 mmHg 60%
    10:00 +29°C° 0 mm 2 m/S 763 mmHg 56%
    11:00 +29°C° 0 mm 2 m/S 763 mmHg 55%
    12:00 +30°C° 0 mm 3 m/S 763 mmHg 54%
    13:00 +30°C° 0 mm 3 m/S 762 mmHg 53%
    14:00 +30°C° 0,1 mm 3 m/S 762 mmHg 55%
    15:00 +29°C° 0,1 mm 3 m/S 762 mmHg 56%
    16:00 +29°C° 0,1 mm 3 m/S 762 mmHg 58%
    17:00 +28°C° 0,1 mm 3 m/S 762 mmHg 66%
    18:00 +26°C° 0,1 mm 3 m/S 762 mmHg 74%
    19:00 +25°C° 0,1 mm 3 m/S 762 mmHg 82%
    20:00 +22°C° 0 mm 3 m/S 762 mmHg 86%
    21:00 +21°C° 0 mm 3 m/S 762 mmHg 89%
    22:00 +19°C° 0 mm 2 m/S 763 mmHg 93%
    23:00 +19°C° 0 mm 2 m/S 763 mmHg 93%

    1 Juni, Donnerstag

    Zeit Temperatur Niederschläge Wind Luftdruck Luftfeuchtigkeit
    00:00 +19°C° 0 mm 2 m/S 763 mmHg 93%
    01:00 +19°C° 0 mm 2 m/S 762 mmHg 93%
    02:00 +18°C° 0 mm 2 m/S 762 mmHg 93%
    03:00 +18°C° 0 mm 2 m/S 762 mmHg 93%
    04:00 +17°C° 0 mm 2 m/S 762 mmHg 92%
    05:00 +19°C° 0 mm 2 m/S 763 mmHg 85%
    06:00 +21°C° 0 mm 2 m/S 763 mmHg 79%
    07:00 +24°C° 0 mm 2 m/S 763 mmHg 72%
    08:00 +26°C° 0 mm 2 m/S 763 mmHg 66%
    09:00 +27°C° 0 mm 2 m/S 763 mmHg 61%
    10:00 +29°C° 0 mm 2 m/S 763 mmHg 56%
    11:00 +29°C° 0,1 mm 2 m/S 763 mmHg 55%
    12:00 +29°C° 0,1 mm 3 m/S 762 mmHg 54%
    13:00 +30°C° 0,1 mm 3 m/S 762 mmHg 54%
    14:00 +30°C° 0,1 mm 3 m/S 762 mmHg 53%
    15:00 +30°C° 0,1 mm 3 m/S 762 mmHg 53%
    16:00 +30°C° 0,1 mm 3 m/S 762 mmHg 53%
    17:00 +28°C° 0 mm 3 m/S 762 mmHg 61%
    18:00 +26°C° 0 mm 2 m/S 762 mmHg 70%
    19:00 +25°C° 0 mm 2 m/S 762 mmHg 79%
    20:00 +23°C° 0 mm 2 m/S 762 mmHg 83%
    21:00 +19°C° 0 mm 2 m/S 762 mmHg 88%
    22:00 +17°C° 0 mm 2 m/S 763 mmHg 93%
    23:00 +17°C° 0 mm 2 m/S 763 mmHg 93%

    2 Juni, Freitag

    Zeit Temperatur Niederschläge Wind Luftdruck Luftfeuchtigkeit
    00:00 +17°C° 0 mm 2 m/S 763 mmHg 92%
    01:00 +17°C° 0 mm 2 m/S 763 mmHg 92%
    02:00 +17°C° 0 mm 2 m/S 762 mmHg 92%
    03:00 +17°C° 0 mm 2 m/S 762 mmHg 92%
    04:00 +17°C° 0 mm 2 m/S 762 mmHg 92%
    05:00 +19°C° 0 mm 2 m/S 763 mmHg 85%
    06:00 +21°C° 0 mm 2 m/S 763 mmHg 79%
    07:00 +24°C° 0 mm 1 m/S 763 mmHg 72%
    08:00 +26°C° 0 mm 1 m/S 763 mmHg 66%
    09:00 +27°C° 0 mm 1 m/S 763 mmHg 60%
    10:00 +29°C° 0 mm 2 m/S 763 mmHg 53%
    11:00 +29°C° 0,2 mm 2 m/S 763 mmHg 54%
    12:00 +29°C° 0,2 mm 2 m/S 762 mmHg 54%
    13:00 +29°C° 0,2 mm 3 m/S 762 mmHg 55%
    14:00 +29°C° 0,2 mm 3 m/S 762 mmHg 56%
    15:00 +29°C° 0,2 mm 2 m/S 762 mmHg 56%
    16:00 +29°C° 0,2 mm 2 m/S 762 mmHg 57%
    17:00 +28°C° 0,2 mm 2 m/S 762 mmHg 65%
    18:00 +26°C° 0,2 mm 1 m/S 762 mmHg 73%
    19:00 +25°C° 0,2 mm 1 m/S 762 mmHg 80%
    20:00 +24°C° 0,1 mm 1 m/S 762 mmHg 81%
    21:00 +22°C° 0,1 mm 1 m/S 762 mmHg 82%
    22:00 +21°C° 0,1 mm 1 m/S 763 mmHg 83%
    23:00 +21°C° 0 mm 1 m/S 763 mmHg 84%
    Mehr zeigen